RH
9 7 7 14 20 26 24 23 29 20 12 30 26 30 51 95 87 75 62 68 51 39 44 56 57 73 94 99 78 57 37 83 92 97 100 84 95 96 83 75 55 77 29 10
8 7 7 12 20 24 21 25 31 16 8 14 30 33 48 63 71 82 80 54 30 31 36 53 68 65 69 93 80 56 45 66 98 82 99 90 96 97 90 84 69 60 57 19
10 9 8 11 17 20 19 27 31 12 10 14 23 25 22 71 79 100 90 90 92 92 99 94 99 100 99 76 63 66 92 97 72 92 96 95 97 97 92 87 84 63 63 54
12 10 9 8 9 13 17 21 31 22 8 11 17 24 18 37 90 100 100 100 100 100 100 99 90 99 100 64 55 85 100 93 99 90 92 97 97 97 92 96 89 84 59 58
16 12 12 10 10 11 16 16 27 34 14 10 12 15 19 20 60 97 100 99 98 100 92 100 98 94 98 100 94 98 90 100 88 100 97 84 93 97 99 98 92 88 83 50
22 18 15 14 12 13 14 15 20 29 32 24 24 23 36 23 22 43 71 93 90 100 100 90 90 94 82 100 99 97 94 98 89 92 97 96 97 96 97 96 90 90 92 72
29 31 22 17 15 14 13 16 18 21 30 26 35 38 43 47 36 32 29 34 46 85 96 99 100 70 70 98 96 94 81 86 93 94 97 96 94 92 94 96 97 97 97 96
36 33 37 25 19 18 16 14 14 17 16 29 34 47 50 49 49 45 45 47 43 32 34 75 96 100 100 100 100 99 85 89 84 82 89 83 91 94 92 96 97 96 97 97
40 43 44 45 26 22 22 19 17 16 18 20 25 40 38 49 52 58 58 54 51 50 48 38 30 35 72 81 95 98 96 77 85 87 88 95 99 98 98 100 96 97 94 96
49 47 48 56 60 32 27 26 26 23 19 20 22 27 32 33 31 31 35 38 34 34 40 44 44 40 35 30 34 31 39 75 94 96 84 89 100 97 92 96 94 86 93 97
67 57 57 58 72 58 36 30 31 32 32 28 26 34 27 32 38 36 34 34 33 33 30 29 31 24 20 26 33 38 40 40 37 35 28 30 42 76 62 87 96 86 73 60
84 78 72 72 76 91 94 47 36 36 37 41 41 37 35 36 46 40 41 44 42 41 39 36 35 37 39 32 26 26 27 24 22 28 41 48 46 44 41 39 38 40 35 34
81 80 83 100 97 99 97 87 49 41 42 46 46 49 48 45 53 49 50 62 60 56 48 40 34 30 33 42 45 40 39 41 44 40 37 32 27 24 22 22 22 21 21 24
75 92 95 90 98 92 97 98 92 70 69 60 53 57 58 56 60 61 58 60 69 77 73 73 69 62 52 44 42 49 46 44 42 44 44 47 48 48 46 43 40 40 36 32
81 76 89 96 96 96 96 100 98 93 96 92 86 77 68 68 70 68 65 65 74 77 81 80 76 73 71 69 64 59 61 57 42 34 34 38 40 43 44 43 45 47 46 42
90 85 79 81 96 93 92 100 98 98 100 95 98 95 90 83 78 72 69 75 74 69 67 63 61 59 56 52 49 50 47 41 38 43 46 41 40 41 40 41 44 46 47 46
86 86 86 72 91 88 87 99 99 98 98 97 93 100 97 94 86 82 82 78 70 67 61 56 50 45 41 40 40 39 37 35 34 33 35 35 34 36 40 43 46 48 48 47
90 92 91 76 79 77 90 99 97 98 98 99 99 99 98 94 96 96 88 74 71 69 65 61 56 52 47 44 39 36 34 32 30 29 27 25 26 32 38 39 41 43 43 46
96 96 98 92 83 79 86 99 99 97 98 98 100 99 96 94 94 90 83 80 77 73 70 66 62 57 53 51 48 45 42 40 40 40 39 38 37 37 36 35 35 37 37 36
88 92 99 100 89 70 74 85 95 93 88 97 96 100 100 94 88 92 92 90 87 81 77 75 70 63 59 55 52 49 46 43 42 41 42 43 42 40 38 36 32 29 26 23
93 96 94 100 97 76 86 86 91 92 93 90 92 95 97 96 94 93 91 86 82 79 75 70 66 61 58 55 55 54 52 49 47 47 46 43 38 34 27 18 13 10 7 7
98 99 98 98 95 90 93 92 93 89 86 88 93 92 94 94 92 91 89 87 83 79 72 68 68 71 72 67 60 55 50 46 40 31 22 15 11 8 7 5 4 4 5 6
98 100 99 100 99 100 98 98 98 98 92 90 91 91 90 89 89 88 85 82 78 75 76 81 82 79 68 58 51 37 24 16 10 6 4 4 4 5 5 6 7 9 13 16
97 99 98 99 100 100 98 98 96 95 98 98 96 92 90 90 90 88 86 84 86 91 91 82 73 63 42 23 12 7 5 4 4 5 7 10 14 20 30 39 43 45 48 56
90 96 100 97 100 99 100 100 98 97 97 96 96 95 95 94 93 91 91 96 96 90 82 65 37 15 8 6 5 5 6 8 12 18 29 40 54 56 51 57 64 65 73 79
100 99 100 97 97 99 99 99 99 100 100 100 100 100 98 94 96 98 96 89 84 68 36 14 7 5 5 6 8 11 14 22 34 47 53 57 60 57 65 67 66 69 67 67
Wind_Speed
20 21 23 23 23 22 21 27 31 27 12 12 17 22 35 35 35 37 26 21 16 8 2 8 7 12 11 19 39 53 58 51 41 49 47 64 52 52 53 50 45 50 46 48
23 20 19 20 20 20 21 26 30 26 10 8 15 25 30 41 38 36 27 18 12 5 2 8 10 9 16 16 37 46 53 55 43 54 45 56 52 53 54 56 48 51 49 48
23 19 17 17 17 18 19 23 26 23 11 14 16 19 26 26 29 24 32 27 15 7 8 10 13 8 7 11 31 39 43 44 50 51 45 43 41 54 59 62 56 49 55 53
22 20 17 18 16 16 16 18 21 24 12 9 14 17 20 19 21 21 20 21 23 19 26 10 10 12 8 19 32 34 45 34 27 63 45 38 46 42 59 61 62 57 50 57
23 21 20 18 18 15 12 14 17 21 20 12 12 14 14 11 12 14 17 18 16 13 10 10 20 10 13 19 5 26 44 26 42 43 48 53 53 50 52 61 62 62 55 51
21 24 20 19 18 15 13 11 12 14 16 16 17 15 17 13 8 6 10 11 12 17 11 6 10 10 16 6 2 9 8 18 18 9 33 26 19 14 44 61 64 62 64 55
23 22 24 21 19 16 14 12 9 9 11 13 17 16 17 18 19 19 18 15 11 7 9 12 13 9 7 7 12 4 30 28 19 19 21 31 26 30 28 16 40 54 59 66
20 20 21 21 19 17 15 13 11 8 7 8 9 10 13 15 16 16 16 17 18 15 12 10 11 10 3 3 4 12 20 17 13 15 14 26 30 20 22 25 24 23 43 54
24 21 21 22 21 21 18 15 14 11 9 6 6 8 11 11 11 10 10 13 14 17 17 14 10 7 2 5 7 8 15 15 14 14 14 18 22 23 23 22 24 25 29 34
28 23 23 22 25 23 21 19 17 15 13 13 12 8 8 8 10 11 10 10 10 11 10 10 12 10 8 7 9 13 16 14 19 20 20 26 28 28 31 31 27 31 31 31
31 28 27 26 27 25 24 22 19 20 18 17 15 14 12 12 12 12 11 10 11 12 12 13 10 8 10 13 14 17 18 18 19 23 24 28 29 33 36 39 37 35 39 41
30 31 29 30 30 30 26 27 26 23 22 23 21 14 20 18 17 17 15 15 16 16 16 17 17 17 16 17 20 23 24 23 25 28 31 31 33 34 36 36 37 39 41 41
35 33 33 31 34 37 30 26 29 27 24 24 28 22 21 20 22 25 22 20 21 21 20 21 23 26 28 29 28 30 32 34 34 35 36 37 37 39 42 43 43 44 44 45
39 32 34 34 33 37 31 31 28 30 26 28 26 31 26 22 23 28 29 29 27 28 29 30 31 32 34 35 38 38 38 39 42 44 45 46 46 47 47 49 50 50 50 50
39 38 38 36 33 34 38 36 35 32 29 32 26 32 33 28 29 30 31 31 33 34 35 36 38 40 42 43 45 47 48 46 49 52 55 56 57 57 57 58 57 57 58 58
38 38 39 33 33 33 34 34 37 36 34 33 32 32 31 34 34 33 34 35 37 39 41 43 45 46 47 50 53 55 58 60 64 66 66 67 68 68 69 69 68 66 65 65
43 41 39 36 33 36 33 32 33 34 35 36 35 33 30 31 35 36 38 40 43 45 47 49 51 54 57 60 62 63 64 66 69 72 75 76 77 78 79 78 77 76 75 73
44 42 39 41 39 39 37 36 34 29 28 28 27 29 30 32 35 39 43 46 49 51 53 55 57 59 61 62 65 68 70 73 76 79 81 84 87 89 89 87 85 84 83 82
42 41 39 41 40 40 36 36 33 30 28 28 30 33 35 37 41 45 49 51 53 55 58 60 62 64 66 68 70 72 75 78 82 85 88 91 92 93 95 96 96 96 94 91
43 42 41 39 38 37 33 33 32 31 29 33 37 39 43 46 49 51 53 55 58 59 61 64 66 68 70 73 75 78 81 84 87 90 93 95 96 98 100 101 101 101 101 100
43 40 35 37 38 37 34 35 35 37 40 41 44 46 48 52 55 57 59 61 63 65 66 68 71 73 76 79 82 84 86 88 90 92 94 96 99 101 104 105 106 106 106 106
43 40 41 43 42 41 40 41 42 43 45 48 49 51 54 57 59 62 63 65 67 68 71 74 76 79 82 84 86 88 90 91 93 96 99 101 103 104 105 106 105 101 95 88
46 44 46 45 45 44 44 45 46 48 50 52 53 55 58 61 63 64 65 67 70 73 76 79 81 84 86 88 89 91 93 96 97 99 99 99 97 94 89 84 80 75 71 68
48 48 49 47 45 46 48 49 50 52 53 54 56 59 60 62 63 66 68 71 73 77 79 82 84 86 87 89 92 93 94 94 92 87 79 71 64 57 53 51 50 50 49 48
49 48 44 45 46 47 49 50 52 53 55 57 58 60 62 64 66 68 72 75 78 80 82 83 84 86 87 88 87 85 80 72 63 55 48 44 42 42 42 43 44 43 43 44
45 46 46 47 48 49 51 52 54 55 56 58 60 62 64 66 70 74 76 79 81 81 82 83 84 84 82 78 68 60 54 46 41 39 40 40 41 42 42 40 39 43 44 45
Wind_Direction
7 14 20 20 11 3 1 356 355 2 60 35 25 18 16 40 18 17 24 29 36 30 152 170 227 242 228 236 197 198 197 196 199 202 214 221 221 224 227 234 235 234 234 235
357 7 16 17 13 12 6 3 0 2 55 49 27 32 28 39 28 22 33 48 58 57 189 189 177 180 229 229 199 193 192 201 222 205 215 230 223 221 224 229 232 235 234 233
354 359 7 16 15 15 13 6 4 12 22 17 28 27 35 41 38 38 44 53 59 29 10 209 176 209 217 237 191 181 174 207 221 225 215 229 219 212 221 226 227 235 234 236
349 351 359 3 12 13 23 11 7 17 20 12 3 25 28 27 40 46 46 67 77 72 79 66 52 96 114 164 183 190 204 216 216 222 238 242 243 225 223 228 229 229 237 235
344 347 344 352 355 358 11 18 11 13 24 12 6 19 18 23 35 43 66 69 38 82 72 74 116 93 159 164 183 167 207 234 226 237 230 239 253 252 254 230 230 231 234 239
341 341 339 340 346 344 348 11 9 13 27 24 22 32 21 18 13 44 49 51 64 72 91 160 106 61 147 122 359 269 272 322 322 319 217 227 226 244 235 229 230 234 234 235
331 338 335 332 336 339 335 337 351 1 14 26 25 27 24 34 32 28 28 15 29 22 30 59 123 115 228 161 145 304 317 319 330 325 322 246 259 313 308 251 233 237 241 236
316 320 327 323 321 324 327 322 323 327 360 12 4 12 14 22 38 39 30 30 25 32 23 9 27 96 159 208 234 308 307 307 287 301 293 300 304 302 295 302 301 288 239 236
306 308 312 320 314 312 314 316 313 310 307 309 319 332 341 354 360 10 15 19 19 13 21 19 9 19 17 264 274 286 276 275 277 257 253 266 261 265 245 254 268 264 266 258
301 298 297 306 308 304 301 304 305 303 299 302 302 296 293 311 326 335 345 351 354 351 352 353 355 4 351 315 277 274 272 262 255 260 258 255 253 258 258 254 254 269 272 265
304 300 300 296 299 298 295 290 293 294 296 293 295 298 291 301 309 308 316 323 325 328 326 322 316 311 311 308 304 295 291 284 276 269 267 270 267 260 261 260 263 261 263 268
310 303 300 295 293 291 287 289 287 285 292 291 295 295 297 304 306 298 306 313 312 314 316 316 314 308 300 293 289 285 279 276 272 272 271 266 265 264 267 266 264 263 265 263
312 308 301 297 295 291 283 277 279 280 285 291 290 295 292 297 303 298 301 304 305 305 302 300 300 300 300 299 295 294 293 294 292 287 282 277 273 268 266 264 265 265 266 266
313 311 303 302 298 294 284 277 270 274 280 282 291 288 287 291 291 294 297 297 301 303 303 303 301 299 297 296 295 295 294 292 291 291 289 286 283 281 279 279 277 276 275 272
312 312 305 304 298 290 292 293 270 265 264 269 277 280 287 290 285 288 290 296 298 299 300 300 301 302 301 299 298 297 296 292 289 288 290 291 291 289 286 282 280 278 276 276
315 316 311 310 300 292 291 293 285 275 270 273 273 276 282 285 290 287 291 296 297 297 299 299 299 298 297 296 295 295 295 295 296 298 298 295 293 293 291 289 288 285 283 280
314 314 310 310 302 295 297 292 287 284 281 277 279 276 279 284 286 290 294 295 294 295 295 294 294 293 292 292 292 291 290 289 289 289 290 290 289 289 289 289 288 286 284 282
314 315 309 308 306 303 304 301 297 291 290 289 285 285 286 287 291 292 292 291 292 292 292 292 292 290 289 289 289 289 288 287 286 285 285 284 284 286 288 287 286 284 283 283
316 315 309 307 306 306 306 302 300 295 294 295 296 295 292 292 291 290 290 291 292 292 292 291 291 291 291 290 289 289 288 288 289 288 288 288 287 286 284 283 284 284 284 284
311 313 308 307 307 308 310 305 298 294 295 293 292 292 292 291 291 291 291 291 292 292 291 291 291 290 290 291 291 291 291 289 289 289 289 289 288 288 288 286 285 284 282 282
307 308 303 304 302 304 306 301 299 296 292 292 290 289 289 290 292 293 293 293 293 292 293 293 293 293 293 293 293 292 291 291 290 288 287 287 286 286 286 287 288 288 288 287
302 300 300 299 299 301 301 298 295 293 291 290 290 291 291 292 293 293 294 294 295 295 295 295 295 295 295 294 293 293 292 290 290 289 288 287 287 286 285 284 285 287 287 287
301 299 298 295 297 298 296 294 293 292 292 292 292 292 292 293 294 295 296 296 296 296 297 297 297 296 295 295 294 293 292 292 291 290 289 287 287 287 286 285 284 284 284 283
301 300 300 296 299 298 297 296 293 291 292 293 294 294 293 293 294 295 295 296 296 297 298 297 296 295 295 295 295 294 293 292 291 291 290 290 290 289 289 289 288 287 285 283
306 303 298 297 298 296 294 293 293 293 294 294 294 294 295 295 296 296 297 298 298 297 296 296 297 297 296 296 296 295 296 295 295 295 295 296 294 292 292 292 289 287 286 285
301 299 297 297 298 296 294 294 293 293 293 295 296 296 297 298 299 300 298 297 297 297 298 298 298 298 298 298 298 297 299 300 299 299 299 297 295 294 294 293 290 290 290 288